Dewpoint
56 56 55 54 54 53 54 54 54 55 55 53 53 52 53 53 52 52 52 51 51 50 50 49 49 50 49 50 48 48 48 48 49 49 49 49 49 49 49 49 48 48 49 48 48 48 49 49 49 50 52 54 53 53 52 51 51 52 51 49 47 48 48 47 45 44 44 45 46 42 47 48 45 46 45 48 49 51 48 47 47 48 46 45 45
56 56 56 55 54 54 54 54 55 55 54 53 52 52 52 52 52 52 51 51 50 50 50 50 50 50 49 48 48 48 48 48 48 49 48 49 49 49 48 48 47 47 47 47 48 48 48 48 47 48 49 52 52 51 51 51 49 49 49 48 46 47 48 45 45 44 45 43 43 43 47 48 44 46 48 48 48 50 48 47 45 44 42 42 41
57 57 56 56 55 54 54 54 55 54 53 53 52 52 52 52 53 52 51 51 51 50 50 50 50 50 49 49 48 48 49 49 48 48 48 48 48 48 49 48 48 47 47 47 47 47 48 48 48 49 49 49 49 49 50 50 50 48 50 48 46 47 45 43 44 43 44 44 44 41 45 46 47 44 45 47 47 46 48 48 44 42 42 43 41
57 57 56 56 55 55 54 54 54 54 53 53 52 52 52 52 53 52 51 51 50 51 51 50 50 50 50 50 49 49 49 50 49 48 48 48 48 48 48 48 48 47 47 47 47 47 47 48 48 49 49 49 48 48 48 48 50 49 49 48 47 45 47 44 45 45 44 42 42 37 42 46 45 39 41 42 44 45 46 46 43 41 40 40 40
57 56 56 55 55 55 54 55 54 54 53 54 53 53 52 52 52 52 52 51 50 51 51 50 50 50 50 50 49 49 50 50 49 49 49 49 48 48 48 47 48 47 47 48 51 48 49 48 48 48 48 48 48 48 47 47 45 48 48 46 44 44 45 43 44 44 43 42 42 42 43 41 41 41 38 39 40 41 41 44 43 42 42 43 41
57 56 56 55 54 54 54 54 54 53 54 53 53 53 53 52 52 53 52 51 51 51 50 50 50 50 50 50 50 50 50 50 49 49 49 49 48 48 49 48 48 47 47 48 49 49 49 48 49 48 48 48 48 48 48 47 46 46 45 44 41 43 44 43 44 44 42 41 42 41 44 42 42 45 41 41 42 42 42 43 44 45 41 44 46
56 56 55 55 54 54 54 54 54 54 54 54 54 54 54 53 53 53 53 52 51 50 50 50 51 50 50 51 50 51 51 50 50 50 50 49 48 48 50 50 49 49 49 50 50 49 49 49 49 49 49 49 49 49 48 48 48 47 47 46 43 43 43 42 41 42 42 41 42 43 43 45 45 43 43 41 43 41 44 45 45 43 46 46 44
56 56 55 55 54 55 55 55 54 54 54 52 52 53 54 54 53 53 53 52 52 51 50 50 50 50 50 51 50 51 50 50 49 50 50 49 49 50 51 51 51 51 52 52 52 52 51 51 50 50 49 49 49 49 49 49 48 48 48 48 46 44 43 44 43 41 41 42 42 43 44 45 45 46 43 43 42 43 43 44 43 44 45 45 45
55 54 54 54 54 55 55 55 55 54 53 53 53 53 53 53 54 53 53 52 52 52 51 51 50 50 50 50 51 51 51 50 50 51 51 50 50 51 52 52 52 51 52 52 53 52 52 52 51 51 53 53 50 49 49 49 49 48 48 48 47 45 45 45 44 42 42 42 43 45 45 45 45 45 44 44 42 42 46 45 44 45 43 43 43
54 53 53 53 53 54 54 55 55 54 53 53 53 53 53 53 53 53 53 52 51 52 51 51 51 50 50 51 51 51 51 51 52 49 50 51 51 51 52 52 52 51 52 52 53 53 52 51 53 57 54 52 49 46 45 46 48 49 49 48 48 46 46 46 45 43 43 42 42 44 43 44 44 44 44 45 45 45 45 45 44 43 43 44 44
55 53 53 54 53 53 53 54 54 53 53 53 53 53 53 53 53 53 53 53 52 52 51 51 51 51 51 51 51 51 51 52 48 46 46 48 51 52 52 52 52 52 52 51 51 52 52 51 52 53 53 53 50 45 44 45 45 44 45 46 48 47 47 46 46 46 43 42 44 44 44 44 45 44 45 45 44 45 45 44 43 43 43 43 42
55 55 55 54 54 54 53 53 53 53 53 53 53 53 52 52 52 52 51 52 52 52 51 51 52 52 52 52 52 52 52 50 46 44 43 44 48 52 52 52 52 52 53 53 53 52 52 52 52 52 51 51 50 49 47 44 43 43 42 42 43 43 44 47 47 46 46 44 44 44 45 44 45 45 44 44 43 43 43 43 43 43 42 43 42
47 49 52 54 54 54 54 53 53 53 53 53 52 52 52 52 52 52 52 51 51 51 51 51 51 51 51 52 52 52 52 46 43 42 42 41 42 50 53 53 53 53 53 52 52 52 52 52 53 53 53 54 53 48 48 46 41 41 42 43 43 42 42 42 43 48 48 47 46 46 45 45 45 45 45 45 44 44 43 42 42 42 42 42 41
40 41 42 45 50 53 54 53 53 52 52 52 51 51 51 51 51 50 51 51 50 50 50 50 50 50 51 50 49 50 51 45 42 41 41 40 40 44 53 52 52 53 53 52 53 53 53 52 53 53 53 54 51 48 47 46 44 44 45 45 45 43 41 41 41 42 45 48 47 48 46 46 46 46 46 44 44 43 43 42 42 41 41 40 40
38 38 38 39 41 45 50 52 52 52 51 51 50 50 50 49 50 49 49 50 50 49 49 49 50 51 51 49 49 50 51 42 41 40 40 40 40 43 51 52 52 52 53 54 53 53 53 53 53 53 53 53 53 49 48 46 45 45 44 43 43 44 44 44 45 47 48 48 48 48 47 46 46 46 45 43 45 44 44 44 43 42 40 39 38
37 38 38 38 38 39 40 41 42 43 45 46 46 47 48 48 49 48 48 48 47 47 47 48 47 49 50 49 49 49 49 42 42 41 40 39 41 48 50 51 51 51 52 53 53 53 53 53 53 53 52 53 50 44 45 47 46 45 45 43 42 41 41 39 38 38 44 46 49 47 47 47 44 46 44 44 43 42 40 39 39 38 37 36 35
37 37 38 38 38 38 38 38 39 40 40 39 41 43 44 46 48 48 49 47 48 48 48 48 48 49 50 49 48 47 49 48 43 41 40 39 43 46 48 49 49 50 51 52 52 52 52 52 53 53 52 52 48 42 41 43 47 46 45 43 42 42 42 40 39 38 38 39 38 38 38 39 39 39 38 38 38 39 39 38 37 37 37 35 36
36 37 37 37 38 38 38 38 39 39 38 40 38 39 41 41 42 45 47 47 48 48 48 49 48 48 49 50 49 49 49 49 43 43 41 40 44 50 50 50 50 50 50 50 50 50 51 51 53 53 52 52 46 42 41 44 47 47 46 44 42 42 40 40 41 40 37 37 36 36 36 37 37 37 37 37 37 39 39 38 38 37 37 37 35
36 36 36 36 37 37 38 38 37 37 39 40 40 39 38 38 40 41 42 42 43 44 46 46 46 47 47 47 50 50 49 48 44 43 42 41 43 48 49 50 50 50 50 50 49 49 49 50 50 51 52 50 45 42 40 44 49 48 46 45 45 44 43 41 41 38 38 37 37 38 39 38 39 39 40 38 38 40 40 40 37 38 36 37 37
36 36 36 36 36 37 37 37 37 37 37 38 39 40 40 40 38 38 39 40 41 42 43 43 43 44 44 45 46 47 48 48 47 42 42 41 41 47 49 49 49 50 50 50 50 50 48 48 47 42 41 42 43 41 40 41 48 48 47 46 46 46 42 41 40 40 38 38 38 39 39 39 37 37 38 39 40 41 38 39 39 39 40 39 38
36 36 36 36 36 36 36 37 37 37 37 37 39 40 40 41 40 40 39 39 38 38 40 41 42 42 43 44 44 44 45 45 45 40 40 41 40 41 47 48 49 50 50 49 49 49 49 49 48 44 40 40 41 41 40 40 42 48 47 47 47 46 39 40 39 38 39 40 40 40 39 38 38 38 38 39 39 38 38 38 38 40 39 38 35
36 35 36 36 36 36 36 37 37 37 37 36 36 36 36 37 38 40 41 41 39 38 38 38 39 40 41 42 43 43 44 41 40 40 39 39 40 39 44 47 48 49 48 48 49 48 48 48 47 43 40 39 39 39 39 39 39 47 48 42 39 36 39 40 39 40 40 39 38 37 37 37 37 36 36 36 36 37 36 36 36 36 37 37 36
35 35 35 36 36 36 36 36 36 37 37 37 36 36 36 36 36 36 36 36 35 35 36 36 37 37 37 38 40 41 42 42 38 38 38 37 38 38 38 41 40 43 46 47 48 48 46 44 43 41 39 39 38 38 38 38 39 44 41 40 36 36 38 39 38 39 40 38 38 37 36 35 35 34 33 33 34 35 35 36 36 37 37 37 36
35 35 36 35 35 36 36 36 36 36 36 36 36 35 36 36 36 35 35 35 34 34 35 35 35 35 35 37 37 38 39 40 40 38 38 36 37 37 37 37 37 41 43 43 44 44 44 44 42 38 38 38 38 38 38 39 42 40 40 36 36 38 41 39 38 38 36 36 35 35 34 34 34 33 33 33 33 34 35 35 35 35 35 35 35
35 35 35 35 35 35 36 35 36 36 36 36 35 36 36 36 35 35 35 34 34 34 34 35 35 35 35 35 36 37 38 39 40 39 37 37 37 36 36 36 36 36 39 42 43 43 40 39 37 36 36 37 37 36 37 37 38 38 37 36 39 42 40 40 39 37 36 35 35 34 33 33 33 33 34 34 34 34 34 34 34 34 34 34 35
35 34 35 35 35 35 35 35 35 35 36 36 36 36 35 36 35 35 35 35 34 34 34 35 35 35 35 35 36 36 37 39 39 39 38 38 37 37 36 36 37 37 37 39 37 36 36 35 35 35 35 37 40 41 41 40 37 37 37 38 40 41 40 39 37 37 36 35 33 33 33 33 33 33 34 34 33 32 33 33 33 33 34 33 32
35 34 34 34 34 34 35 35 35 35 35 35 35 35 35 35 35 35 35 34 34 34 34 34 34 34 34 35 35 36 36 37 38 38 38 38 38 38 39 38 38 37 37 37 37 37 37 38 36 35 35 35 36 36 37 37 39 40 41 41 40 39 39 38 38 38 37 34 33 32 32 33 33 32 32 32 32 32 33 33 32 32 33 33 33
33 33 33 33 34 34 34 33 34 34 34 34 34 34 34 34 34 34 34 34 34 34 34 34 34 34 34 34 34 35 35 36 37 37 37 37 37 37 38 39 38 36 37 37 37 38 38 35 36 37 35 36 35 35 36 37 36 36 39 39 38 39 38 36 36 36 36 35 34 33 33 32 32 32 32 31 31 32 33 32 32 32 32 31 31
34 33 33 33 34 34 34 33 34 34 34 34 33 33 33 33 33 34 34 34 34 34 34 34 34 33 33 34 34 34 34 34 36 35 35 35 34 35 36 38 39 37 38 36 37 36 36 36 35 36 35 32 33 34 36 36 34 36 37 38 38 39 39 40 38 37 36 36 34 33 32 31 31 31 31 31 31 31 31 32 32 32 31 32 31
33 33 33 33 34 34 33 33 33 33 33 33 33 33 31 34 34 34 34 35 35 35 35 34 34 34 34 34 34 34 34 35 35 35 35 35 35 35 35 35 35 37 36 34 35 33 32 33 33 33 32 33 32 32 33 33 32 33 34 34 36 38 37 36 35 34 34 34 33 32 31 31 30 30 31 30 30 31 31 30 32 32 31 31 30
32 32 33 33 33 33 33 32 32 31 31 32 31 31 32 32 33 34 34 35 35 34 34 34 34 34 35 34 34 34 34 34 34 34 34 34 35 34 34 33 35 35 34 33 32 31 31 31 31 31 31 33 32 32 32 32 32 32 33 33 34 34 33 35 35 32 32 31 31 31 31 31 30 30 30 30 30 30 30 29 31 32 32 31 31
32 31 31 32 33 32 31 31 32 31 31 31 31 31 31 32 33 33 34 34 34 34 34 34 34 34 34 35 35 34 34 34 34 34 34 35 34 34 33 34 34 35 34 34 33 31 31 32 31 32 32 32 32 32 33 33 33 33 33 32 32 32 32 32 34 34 31 31 30 30 30 31 31 29 29 28 26 28 29 28 29 29 29 30 31
31 31 31 31 31 31 31 31 31 30 31 31 31 31 32 32 33 33 33 34 34 34 34 34 34 34 34 34 35 34 34 34 34 35 35 34 34 34 34 34 34 35 34 33 33 31 30 32 33 34 33 32 32 33 34 34 33 34 34 33 32 32 35 34 33 34 32 31 30 30 30 30 28 26 25 25 26 26 26 27 30 29 30 30 27
32 32 32 32 32 31 31 31 31 31 30 30 31 31 32 33 33 33 33 33 34 34 34 34 34 34 34 34 34 34 34 34 35 34 34 33 33 34 34 33 34 34 33 33 32 31 32 33 34 35 35 35 34 32 33 34 33 34 33 34 35 35 35 34 35 32 31 31 30 29 29 28 27 27 26 25 25 26 26 26 28 26 27 29 29
32 32 31 32 32 32 31 30 30 30 30 30 30 31 32 33 33 33 33 33 33 33 33 33 34 34 34 34 34 34 34 34 34 34 33 32 33 35 34 35 34 32 33 34 35 35 33 34 34 35 35 34 34 32 33 35 34 33 33 33 35 34 33 32 32 32 31 31 30 29 29 28 28 27 27 26 26 27 26 27 27 29 29 28 28
31 31 31 31 32 32 31 30 30 30 30 30 31 32 32 32 32 33 33 33 33 32 32 33 33 34 34 34 34 33 33 34 34 33 32 32 33 35 36 36 36 36 34 35 35 35 36 36 35 35 35 35 35 33 34 34 34 33 35 33 31 31 31 31 30 30 30 30 30 29 29 28 27 26 26 27 28 27 26 27 27 27 28 29 28
31 31 31 31 32 32 31 30 30 30 28 28 31 32 32 33 33 33 32 32 32 32 32 32 33 33 33 32 33 33 33 33 33 33 31 31 31 33 34 35 35 35 36 37 36 36 37 37 35 36 36 36 36 36 34 34 35 34 34 34 32 32 31 30 30 29 30 30 29 29 29 28 28 28 29 27 25 25 26 27 26 27 27 28 29
31 31 31 31 31 31 31 31 30 27 28 29 30 30 31 31 32 32 32 31 31 31 31 31 32 31 31 32 34 32 32 33 33 33 32 30 28 29 29 30 32 34 35 36 36 37 37 37 37 37 37 37 36 36 34 34 34 33 33 33 31 31 31 30 30 30 30 29 29 29 28 27 26 26 26 27 27 26 26 25 24 27 28 29 30
30 29 28 29 30 30 30 30 30 30 30 29 30 29 29 30 32 32 31 31 31 31 30 31 31 31 31 31 31 32 33 33 32 30 29 28 28 30 31 32 32 32 32 33 33 34 35 36 35 36 36 36 35 35 34 33 33 32 32 31 31 30 30 30 30 29 29 29 28 28 28 27 26 25 25 26 25 25 25 26 26 28 29 30 30
31 31 29 29 29 29 29 29 29 30 28 29 30 29 29 30 31 31 30 30 30 30 29 30 30 30 31 32 31 32 32 31 30 29 28 28 28 30 31 30 31 32 31 31 32 31 32 31 32 33 34 34 35 34 33 33 32 31 30 28 28 29 29 29 29 29 29 29 27 27 27 26 24 23 24 25 25 25 26 27 29 29 30 30 31
31 30 29 29 29 29 30 30 30 30 30 29 29 29 29 29 30 30 30 30 29 28 29 29 30 31 31 31 31 30 30 29 29 29 28 28 29 29 30 31 31 31 31 31 31 32 32 32 31 31 31 31 32 31 31 31 30 30 29 29 30 30 30 30 30 29 29 27 26 26 26 25 24 26 27 26 28 27 28 28 28 29 30 31 31
31 30 30 29 28 29 30 30 29 28 29 27 30 29 28 29 30 30 30 29 29 29 28 30 30 30 30 31 30 30 29 29 29 29 30 30 30 30 29 30 31 31 31 32 32 31 31 31 31 31 31 31 31 31 31 31 30 30 30 30 30 30 30 30 29 29 28 27 26 26 26 25 25 26 27 28 26 27 28 29 29 30 31 31 31
31 30 29 28 29 30 30 30 30 30 29 30 29 29 29 30 30 30 30 29 30 29 29 30 30 30 30 29 29 28 30 29 28 29 30 30 31 29 29 30 31 32 32 33 32 32 31 31 31 30 31 31 31 31 32 31 31 31 31 30 30 30 30 29 28 27 27 27 27 26 26 27 26 25 25 25 26 27 28 29 30 30 31 31 31
31 30 29 29 29 28 28 29 30 29 28 28 28 28 29 29 30 30 30 30 30 30 30 30 29 29 29 29 29 29 29 29 29 29 29 29 30 30 30 31 31 31 31 31 32 32 31 30 29 29 29 29 29 30 29 30 31 31 31 30 30 29 29 28 28 27 27 27 26 26 25 25 24 24 26 25 25 27 28 29 30 30 30 31 31
31 30 30 29 29 29 29 29 29 29 28 28 29 30 28 30 30 30 30 30 30 30 30 29 29 29 29 29 29 29 29 29 28 28 29 29 30 30 30 30 30 30 30 30 30 31 30 29 28 27 26 26 26 27 27 27 27 27 29 30 30 29 29 28 26 25 26 27 25 24 23 24 23 22 23 24 25 27 28 29 30 30 30 30 30
31 30 30 30 29 29 30 29 27 29 29 28 29 29 30 30 30 30 30 30 30 30 30 30 30 30 30 29 29 29 29 29 29 29 29 30 29 29 30 30 30 30 29 29 29 29 28 26 25 25 25 25 25 26 26 26 27 27 26 26 24 24 23 23 23 23 23 24 24 24 23 23 23 24 24 24 25 26 28 29 31 30 30 30 30
31 31 31 30 30 29 29 29 29 29 30 30 29 30 30 30 30 29 28 29 29 29 29 29 30 30 30 30 30 30 30 29 29 29 30 30 30 30 30 30 30 29 29 29 28 27 27 26 25 25 25 25 25 25 25 25 26 26 26 27 27 26 25 24 23 23 23 23 23 23 23 23 24 24 25 25 26 27 28 29 30 30 30 30 30
31 31 31 30 30 30 30 30 30 29 30 29 29 29 29 30 30 29 29 29 29 29 29 30 31 31 31 31 31 31 30 30 30 30 30 30 30 30 30 30 29 29 28 27 27 26 26 26 26 25 25 25 24 24 24 24 24 25 25 25 26 26 26 26 27 27 26 26 25 23 23 23 23 22 24 25 25 26 27 27 29 30 30 30 30
30 31 31 30 30 30 30 30 30 30 30 29 29 29 29 31 31 30 30 29 29 29 30 30 31 31 31 31 32 32 32 32 32 32 31 31 31 30 30 29 29 28 27 26 26 25 25 24 24 24 24 23 23 23 23 23 23 23 23 24 24 24 24 25 26 27 27 28 27 26 24 23 22 22 23 23 24 25 26 27 28 29 30 30 29
30 30 31 30 30 30 30 30 30 30 30 29 29 29 29 30 30 30 30 30 30 30 29 30 30 30 30 30 30 31 31 31 31 31 31 31 31 30 30 29 28 27 26 25 25 25 24 24 23 23 22 22 21 21 21 20 20 20 20 21 20 21 21 22 24 25 27 27 27 27 26 24 24 24 25 24 24 24 24 26 28 28 29 29 29
29 30 30 30 31 30 30 30 30 30 30 30 29 29 29 29 30 30 31 30 30 30 30 29 29 29 29 29 29 29 29 29 29 29 29 29 28 28 28 27 25 25 24 24 23 23 23 22 21 21 20 20 19 18 18 19 19 19 19 19 19 20 20 20 21 22 23 25 26 26 25 24 25 24 24 23 24 25 25 26 26 27 29 30 30